Theta_e
341 343 342 344 345 345 344 342 340 340 339 340 340 340 338 338 340 341 342 340 342 344 345 345 341 340 344 343 340 343 345 344 345 345 347 344 341 348 350 350 344 337 345
340 340 340 342 343 344 343 337 334 336 337 339 339 339 338 339 340 341 342 342 343 344 344 344 344 344 344 344 339 338 342 342 343 345 343 343 344 345 347 349 345 341 342
339 340 342 338 340 340 339 336 339 339 339 338 338 339 339 338 338 338 339 341 341 341 343 343 343 343 343 341 339 339 340 341 341 345 347 344 342 342 345 347 343 346 341
337 340 338 340 338 336 335 335 338 336 336 336 337 338 338 338 338 338 338 339 339 339 339 340 341 340 340 339 338 338 339 339 339 341 345 347 345 341 345 344 339 340 345
338 339 340 337 333 328 327 329 327 327 331 332 332 331 330 332 329 331 333 335 336 338 337 337 338 338 338 337 337 337 337 337 339 339 341 344 346 341 342 342 340 341 338
339 338 335 328 326 324 322 323 324 327 330 331 330 328 324 323 319 321 322 322 325 327 330 333 333 332 335 337 337 336 335 336 336 336 337 339 343 345 338 338 338 338 340
336 330 323 320 320 319 317 317 317 320 322 326 325 322 320 316 319 318 318 317 316 315 314 317 320 326 329 329 328 333 335 335 336 334 335 337 342 344 339 337 338 337 341
325 321 322 323 322 321 320 319 318 317 316 316 315 315 316 317 321 321 318 318 316 316 313 313 313 314 315 320 326 326 326 330 333 333 332 334 334 338 340 336 335 337 340
321 325 325 325 324 323 321 320 320 320 319 319 319 317 316 319 322 322 320 319 317 317 316 315 315 314 315 319 316 317 325 325 326 326 328 329 331 337 340 338 335 334 339
324 327 327 326 325 325 323 320 321 321 321 320 320 321 320 322 323 324 323 320 319 318 319 319 319 319 319 319 318 315 313 323 327 327 326 323 328 339 339 337 335 331 336
327 325 321 320 320 323 324 321 325 321 322 320 320 320 320 319 319 320 320 322 323 320 323 322 324 325 324 320 318 317 324 319 320 324 328 330 330 329 337 337 335 333 332
321 320 320 319 319 319 320 319 321 322 322 320 320 319 318 318 319 319 318 318 318 318 318 319 318 319 320 318 318 318 317 317 321 320 329 332 331 330 332 336 335 333 331
322 320 320 318 318 318 318 318 319 321 322 321 320 319 319 318 317 318 318 317 318 318 318 317 317 318 318 317 318 318 318 317 317 318 328 330 331 333 335 335 334 333 331
321 321 321 318 317 317 318 318 319 319 319 319 320 320 319 318 317 317 317 317 318 318 317 317 316 317 317 318 318 318 319 318 317 317 317 323 328 331 334 333 334 333 332
321 322 321 319 319 319 319 319 319 319 318 318 319 320 319 318 316 316 317 317 317 319 317 316 316 317 317 319 319 318 318 319 318 318 317 317 324 326 327 329 330 329 329
322 321 323 323 323 322 321 320 320 320 319 318 319 320 319 318 318 316 315 316 317 318 315 315 316 317 318 318 317 317 317 318 318 318 318 318 317 319 323 327 328 330 331
321 321 323 324 324 323 323 321 321 320 320 319 319 319 319 318 318 317 315 315 316 317 316 315 317 318 317 316 314 316 316 317 317 318 318 317 317 317 318 320 327 329 330
321 321 322 326 328 324 324 323 321 322 322 322 320 319 318 318 318 317 317 317 315 315 316 315 315 317 316 315 316 317 318 317 317 316 318 319 317 317 317 319 322 324 327
319 320 321 325 328 325 324 325 323 323 324 318 321 320 319 318 318 317 317 316 315 315 316 316 316 317 316 316 317 318 318 318 317 317 317 318 318 317 317 317 318 322 321
323 320 321 323 328 326 325 326 324 324 321 318 318 319 319 318 318 316 316 317 316 315 316 315 316 316 317 318 318 318 318 318 318 318 317 318 317 317 317 317 317 319 320
323 322 325 325 327 329 326 323 323 322 320 321 318 319 318 318 317 316 317 318 316 316 316 314 316 317 317 317 318 317 317 317 317 317 316 317 318 318 318 317 317 317 320
328 328 327 327 327 328 327 325 323 321 320 321 322 320 319 319 318 318 317 318 318 317 315 314 316 317 316 318 318 317 312 316 318 315 315 316 317 318 318 319 318 318 318
330 330 328 329 329 329 327 326 323 323 322 321 323 321 320 319 319 319 319 319 319 317 316 315 317 317 318 318 318 318 313 312 313 316 315 315 314 315 316 316 320 318 319
332 331 329 329 327 329 326 325 324 323 318 319 323 321 320 318 319 319 319 319 319 318 317 316 317 317 318 318 318 318 318 317 314 312 316 315 315 315 315 316 317 319 320
330 325 326 326 326 327 325 326 324 323 319 320 322 320 319 319 319 318 318 317 317 318 316 315 317 317 318 318 318 318 318 317 317 313 314 312 313 314 314 314 317 317 318
327 326 326 325 324 323 323 322 322 321 319 320 320 321 319 318 317 317 317 318 317 316 316 316 316 316 317 317 317 317 318 317 315 313 313 312 314 314 314 316 316 316 316
Wind_Speed
11 10 11 11 12 13 14 13 12 12 13 14 13 12 11 10 10 10 10 8 7 8 7 6 5 6 7 6 6 8 8 7 7 7 9 10 12 14 13 10 11 13 16
16 12 11 12 12 12 11 11 11 11 12 12 12 11 10 10 9 9 8 8 8 7 5 4 4 5 4 4 5 6 8 8 8 8 7 8 10 12 11 10 8 11 15
17 13 11 11 9 10 9 10 11 11 12 11 10 10 10 9 9 8 7 8 8 6 6 5 4 2 2 1 2 3 5 7 8 8 8 5 7 8 8 10 10 11 11
15 14 11 9 9 9 9 10 10 11 10 10 10 9 9 8 8 7 7 8 7 6 6 5 5 4 2 1 1 1 1 2 6 8 7 5 6 8 10 11 10 12 13
16 14 12 9 8 8 8 8 8 8 8 8 8 7 8 8 7 7 7 7 7 7 4 6 7 5 5 5 4 3 3 3 4 7 7 6 10 8 11 11 12 11 11
16 14 11 9 8 7 6 6 5 5 5 5 5 5 5 6 7 6 6 6 6 7 6 6 6 6 6 6 6 6 7 6 6 6 7 6 11 13 12 12 13 14 14
16 12 11 9 7 6 6 5 4 1 1 2 2 2 3 5 5 5 8 8 11 14 11 10 9 9 9 9 9 9 9 10 10 9 8 5 6 16 12 12 14 14 14
17 14 11 8 6 4 5 6 5 4 2 1 2 3 2 3 3 3 7 9 14 15 12 11 12 12 12 12 11 12 12 13 13 12 11 10 9 17 19 17 15 16 17
17 13 10 6 3 2 3 5 6 7 7 7 6 5 5 5 5 5 6 7 11 14 12 10 9 10 11 14 14 13 13 13 15 14 13 13 11 13 23 19 17 16 19
15 10 7 3 1 4 2 1 1 2 5 5 5 5 8 5 5 6 8 12 10 12 12 11 12 12 11 11 12 14 15 14 13 13 14 13 10 11 21 20 19 18 19
15 11 10 10 6 5 4 4 5 3 0 2 4 3 4 6 7 4 6 9 10 11 13 12 15 13 11 10 11 13 11 16 18 15 15 12 11 13 21 22 20 19 20
20 15 13 11 12 10 2 5 2 7 5 2 3 2 3 5 5 5 7 7 6 9 10 6 9 10 6 9 12 11 12 13 9 13 10 8 12 15 21 24 20 20 20
17 14 10 8 5 4 2 6 8 1 9 6 3 2 2 5 8 6 7 6 7 11 7 10 11 11 12 13 11 14 12 11 10 9 6 8 7 8 14 17 17 18 18
18 14 10 6 6 6 3 2 4 1 3 4 7 7 4 6 7 6 7 7 13 10 6 11 14 8 9 13 16 17 15 12 11 11 9 8 7 4 10 15 18 21 20
15 13 9 4 3 3 5 1 2 2 6 7 5 6 9 6 7 8 6 7 14 7 9 12 13 15 17 16 13 13 14 14 12 11 10 10 8 9 9 9 11 16 20
11 10 7 5 4 4 4 5 4 5 7 10 8 12 10 8 6 8 7 9 10 8 12 16 14 16 9 11 15 16 16 14 16 14 13 13 10 10 11 14 16 15 17
15 13 11 10 10 9 6 6 5 7 9 12 9 7 10 7 5 6 5 9 10 12 16 15 10 11 15 18 19 17 16 14 17 17 16 16 14 11 13 14 14 17 16
19 18 15 11 10 17 12 9 7 10 14 16 13 11 9 9 10 9 10 9 15 12 14 15 16 12 18 21 20 17 16 15 17 17 15 16 17 17 16 13 15 14 17
22 21 17 17 15 17 16 13 12 12 15 10 15 17 14 10 10 9 9 10 12 14 16 13 12 15 16 19 19 19 20 20 17 19 18 14 12 17 18 16 16 19 19
25 25 23 19 18 14 18 17 17 16 10 9 8 13 14 11 8 10 10 12 11 12 11 14 15 13 14 16 17 19 20 19 19 14 9 11 15 18 16 17 17 19 20
24 27 25 22 24 24 23 18 20 22 16 12 13 11 12 11 10 11 12 12 13 13 11 12 12 13 15 16 14 20 19 11 13 5 15 10 12 12 16 18 18 17 21
24 24 22 25 26 25 22 22 21 21 14 15 16 15 16 14 14 13 14 14 12 14 13 11 11 10 13 13 6 7 4 8 3 19 13 12 12 12 11 9 14 17 19
23 22 23 24 25 23 21 22 21 24 20 20 20 17 16 17 16 16 16 17 15 13 13 12 11 12 12 13 10 6 2 2 8 6 13 9 22 21 17 15 10 11 16
21 19 18 18 17 20 18 19 23 24 21 23 20 21 15 13 12 15 18 17 15 13 14 13 12 13 11 13 13 9 12 8 3 4 4 20 19 23 24 18 15 10 11
4 4 6 9 12 15 15 19 23 24 21 23 22 14 10 14 17 17 14 13 13 13 14 14 13 13 13 12 12 13 11 10 12 8 5 7 25 28 28 23 18 14 13
3 3 1 2 5 9 12 13 17 20 25 26 27 27 21 18 20 17 15 16 14 13 13 13 13 12 11 12 14 14 16 9 7 8 4 6 13 22 22 19 21 23 19
Wind_Direction
133 123 123 118 110 106 100 94 85 84 79 79 81 79 77 80 82 85 88 101 102 94 91 84 83 90 97 99 109 112 121 118 109 114 125 129 138 138 136 129 126 131 128
149 143 136 124 114 102 96 85 80 81 78 74 76 78 79 76 76 76 73 80 84 80 77 72 75 75 85 98 112 126 130 133 134 131 131 139 139 145 144 141 140 132 139
157 148 135 127 114 103 93 78 79 76 74 70 68 71 73 75 73 71 71 68 61 52 49 49 31 41 75 71 103 119 140 146 148 153 143 150 162 160 155 164 152 144 144
151 147 134 127 115 100 93 89 86 82 75 73 70 68 71 67 64 65 61 58 56 46 28 20 8 352 344 303 258 224 162 192 174 169 172 190 192 179 173 164 159 159 156
144 138 135 129 116 105 97 93 85 79 77 73 71 62 59 58 52 46 46 42 37 37 26 4 349 337 322 316 304 281 260 253 229 204 197 193 212 202 191 180 170 167 164
144 143 137 127 115 103 91 82 79 88 85 81 68 49 40 30 17 13 14 9 4 359 354 342 327 306 312 302 297 293 291 284 275 261 240 274 224 218 208 195 185 180 173
148 141 130 122 112 98 83 54 31 39 79 91 15 0 4 12 13 12 13 359 3 345 325 309 305 301 295 291 287 280 285 289 293 284 258 271 229 229 216 204 194 191 186
141 138 133 127 113 102 79 51 40 29 5 344 353 329 326 340 351 347 10 9 3 357 340 311 302 296 293 291 289 286 283 282 281 284 281 266 266 237 225 214 213 199 196
145 143 141 142 138 136 92 57 61 45 54 61 64 54 23 336 304 301 328 325 350 353 358 355 344 326 308 299 291 284 284 285 286 285 286 282 286 234 220 219 217 216 202
158 154 149 154 234 230 196 342 106 55 67 63 55 36 17 352 315 271 289 306 311 333 339 337 337 330 329 335 330 303 280 282 280 286 292 284 277 236 224 230 224 218 212
180 159 146 91 79 177 223 302 258 216 166 106 37 54 30 360 355 347 350 345 287 324 323 320 317 311 311 337 339 342 313 313 281 292 308 302 282 253 233 235 232 228 222
150 144 125 106 83 102 50 29 303 230 243 199 64 10 327 8 29 357 343 359 334 343 353 5 27 14 350 341 336 333 324 334 310 316 308 295 283 257 227 226 237 224 223
141 125 115 98 103 107 77 44 66 187 245 219 218 204 309 345 291 318 330 345 334 329 335 331 332 344 352 336 327 329 325 323 324 327 308 311 290 223 210 216 225 228 221
133 127 121 106 102 76 29 22 46 359 6 250 240 216 262 321 313 303 301 313 344 343 326 331 330 319 333 327 325 328 327 317 312 316 309 314 299 216 224 229 228 227 227
138 139 137 136 69 51 39 292 294 287 320 294 293 249 283 312 343 334 299 314 348 328 329 335 319 323 320 320 330 334 342 337 325 312 313 300 269 264 261 248 244 241 236
175 166 171 204 255 300 324 320 272 263 271 309 274 272 257 293 327 349 337 333 349 338 340 335 321 327 330 328 322 317 315 320 327 315 305 297 292 274 264 263 250 245 241
207 203 203 220 234 263 283 303 277 279 286 304 262 283 251 272 305 321 315 316 318 319 321 328 338 320 330 331 322 318 304 309 320 319 298 283 289 279 265 263 241 238 248
214 212 218 228 252 252 255 276 277 285 286 285 265 262 260 256 287 279 270 279 309 302 314 312 327 318 328 328 324 315 316 316 322 314 313 288 274 276 270 256 250 245 244
224 225 235 236 261 247 245 262 275 285 283 298 257 257 259 264 256 269 273 271 296 303 304 298 315 312 322 323 322 317 314 314 310 311 298 297 293 277 270 264 248 241 243
233 235 246 249 256 249 244 253 268 279 270 297 302 263 240 232 249 271 266 282 283 288 301 313 315 317 318 321 317 311 310 305 304 312 330 304 291 273 268 267 262 242 238
238 245 248 252 248 249 249 257 268 264 259 287 291 275 244 250 267 273 264 267 279 267 286 301 309 318 315 321 325 324 321 319 302 326 343 339 321 292 277 268 264 263 241
241 243 246 252 252 264 251 254 256 263 269 270 284 268 250 265 282 280 267 268 266 271 273 284 300 299 306 313 321 313 335 327 323 326 341 327 329 340 311 296 271 259 252
243 252 258 250 252 268 257 257 255 262 272 277 292 277 257 268 268 267 270 268 266 265 274 281 280 290 294 299 300 260 322 263 323 301 332 344 324 316 309 297 283 262 239
246 244 247 253 260 253 260 255 257 266 273 278 291 297 282 278 267 270 276 275 265 267 276 272 280 285 276 277 298 264 245 256 238 315 288 315 323 309 305 291 271 259 243
194 224 247 257 258 264 266 268 266 269 282 286 288 287 291 276 286 287 279 267 263 269 278 270 272 277 279 276 273 274 264 268 253 244 291 301 311 312 307 285 263 261 244
188 208 248 228 271 276 279 286 274 275 289 289 287 272 265 287 289 278 273 264 268 270 275 272 274 280 274 277 273 268 262 251 246 236 258 288 291 299 306 292 266 257 251